Precipitable_Water
0.39 0.36 0.41 0.49 0.52 0.56 0.58 0.39 0.23 0.45 0.49 0.27 0.28 0.21 0.23 0.28 0.28 0.33 0.30 0.27 0.28 0.26 0.30 0.27 0.27 0.28 0.35 0.47 0.45 0.34 0.38 0.31 0.22 0.22 0.24 0.31 0.31 0.28 0.25 0.18 0.17 0.20 0.18 0.15
0.41 0.38 0.42 0.49 0.51 0.57 0.46 0.31 0.32 0.46 0.43 0.18 0.19 0.25 0.23 0.26 0.27 0.29 0.28 0.27 0.26 0.30 0.28 0.23 0.29 0.30 0.39 0.41 0.38 0.35 0.37 0.28 0.20 0.20 0.23 0.34 0.28 0.27 0.25 0.25 0.22 0.15 0.14 0.13
0.38 0.38 0.38 0.42 0.45 0.54 0.47 0.31 0.18 0.31 0.32 0.29 0.23 0.19 0.18 0.20 0.29 0.26 0.27 0.26 0.28 0.29 0.23 0.28 0.24 0.28 0.35 0.36 0.33 0.37 0.40 0.30 0.24 0.18 0.20 0.22 0.21 0.22 0.20 0.22 0.16 0.15 0.15 0.15
0.40 0.38 0.37 0.36 0.39 0.45 0.40 0.31 0.24 0.28 0.15 0.20 0.21 0.23 0.21 0.20 0.18 0.29 0.28 0.23 0.26 0.26 0.22 0.21 0.22 0.30 0.31 0.32 0.32 0.32 0.33 0.22 0.24 0.25 0.25 0.24 0.23 0.21 0.18 0.17 0.18 0.16 0.16 0.20
0.41 0.40 0.41 0.40 0.35 0.40 0.32 0.22 0.22 0.29 0.22 0.24 0.21 0.21 0.20 0.19 0.23 0.23 0.18 0.23 0.26 0.25 0.20 0.21 0.19 0.27 0.28 0.26 0.31 0.27 0.32 0.22 0.24 0.19 0.23 0.22 0.19 0.19 0.19 0.21 0.22 0.21 0.23 0.21
0.40 0.38 0.40 0.43 0.39 0.35 0.29 0.34 0.36 0.28 0.21 0.21 0.19 0.20 0.23 0.21 0.23 0.24 0.27 0.23 0.21 0.19 0.22 0.28 0.30 0.33 0.33 0.32 0.28 0.26 0.27 0.24 0.20 0.14 0.19 0.20 0.14 0.17 0.21 0.24 0.28 0.26 0.19 0.24
0.44 0.45 0.44 0.43 0.43 0.39 0.34 0.34 0.32 0.23 0.16 0.19 0.18 0.21 0.22 0.21 0.22 0.21 0.23 0.24 0.22 0.27 0.34 0.33 0.29 0.26 0.27 0.28 0.26 0.30 0.24 0.23 0.22 0.16 0.18 0.11 0.16 0.28 0.29 0.26 0.27 0.27 0.27 0.28
0.42 0.42 0.44 0.46 0.48 0.48 0.37 0.39 0.30 0.24 0.17 0.20 0.19 0.20 0.21 0.23 0.24 0.22 0.22 0.25 0.30 0.33 0.26 0.20 0.16 0.14 0.16 0.19 0.24 0.28 0.30 0.25 0.19 0.15 0.15 0.16 0.19 0.25 0.26 0.23 0.21 0.27 0.25 0.26
0.39 0.40 0.40 0.41 0.45 0.49 0.45 0.41 0.43 0.32 0.22 0.18 0.23 0.22 0.24 0.20 0.21 0.21 0.23 0.29 0.32 0.29 0.22 0.19 0.13 0.11 0.14 0.14 0.16 0.26 0.28 0.28 0.21 0.18 0.13 0.10 0.20 0.29 0.33 0.31 0.18 0.28 0.27 0.26
0.40 0.43 0.43 0.44 0.42 0.43 0.43 0.39 0.45 0.37 0.24 0.28 0.27 0.24 0.23 0.28 0.26 0.21 0.23 0.25 0.25 0.28 0.20 0.14 0.14 0.13 0.18 0.14 0.15 0.17 0.19 0.20 0.17 0.17 0.15 0.18 0.25 0.29 0.31 0.17 0.18 0.27 0.27 0.26
0.38 0.39 0.40 0.43 0.45 0.46 0.44 0.36 0.43 0.35 0.26 0.26 0.31 0.34 0.28 0.28 0.29 0.21 0.27 0.25 0.25 0.22 0.17 0.17 0.16 0.15 0.17 0.16 0.18 0.16 0.18 0.16 0.16 0.18 0.15 0.13 0.28 0.26 0.20 0.23 0.27 0.26 0.27 0.27
0.39 0.40 0.42 0.42 0.41 0.43 0.42 0.36 0.43 0.46 0.34 0.28 0.40 0.40 0.41 0.39 0.38 0.32 0.31 0.27 0.27 0.27 0.21 0.21 0.20 0.16 0.17 0.17 0.13 0.20 0.17 0.21 0.18 0.19 0.18 0.24 0.26 0.24 0.26 0.26 0.25 0.25 0.25 0.26
0.39 0.42 0.41 0.42 0.44 0.42 0.40 0.38 0.42 0.39 0.30 0.30 0.31 0.28 0.37 0.44 0.44 0.46 0.28 0.30 0.32 0.29 0.33 0.25 0.22 0.17 0.20 0.15 0.15 0.18 0.21 0.24 0.21 0.20 0.21 0.22 0.24 0.25 0.25 0.25 0.25 0.25 0.25 0.25
0.38 0.39 0.38 0.43 0.44 0.44 0.39 0.36 0.41 0.40 0.35 0.22 0.24 0.39 0.36 0.43 0.42 0.42 0.40 0.35 0.36 0.34 0.32 0.25 0.22 0.19 0.25 0.19 0.20 0.18 0.18 0.20 0.18 0.20 0.21 0.22 0.24 0.23 0.24 0.25 0.25 0.25 0.25 0.25
0.36 0.37 0.38 0.38 0.43 0.45 0.44 0.44 0.44 0.47 0.34 0.22 0.23 0.34 0.35 0.35 0.34 0.31 0.32 0.30 0.28 0.26 0.23 0.22 0.20 0.24 0.23 0.23 0.20 0.16 0.18 0.17 0.16 0.16 0.19 0.19 0.20 0.22 0.23 0.23 0.23 0.23 0.23 0.24
0.36 0.36 0.37 0.38 0.41 0.43 0.39 0.29 0.43 0.47 0.44 0.27 0.18 0.29 0.30 0.31 0.29 0.27 0.26 0.28 0.27 0.25 0.23 0.22 0.25 0.28 0.24 0.17 0.15 0.17 0.19 0.19 0.20 0.18 0.20 0.20 0.21 0.21 0.22 0.22 0.22 0.23 0.23 0.24
0.35 0.36 0.38 0.38 0.42 0.39 0.30 0.26 0.37 0.47 0.44 0.28 0.19 0.19 0.27 0.27 0.26 0.25 0.26 0.28 0.26 0.25 0.23 0.23 0.24 0.22 0.22 0.17 0.14 0.17 0.18 0.19 0.19 0.20 0.20 0.19 0.20 0.19 0.21 0.22 0.22 0.23 0.23 0.24
0.34 0.37 0.40 0.43 0.43 0.41 0.33 0.39 0.43 0.44 0.33 0.29 0.18 0.17 0.19 0.27 0.20 0.19 0.25 0.22 0.23 0.23 0.23 0.25 0.21 0.20 0.18 0.14 0.16 0.17 0.18 0.19 0.19 0.19 0.20 0.19 0.20 0.21 0.21 0.22 0.22 0.21 0.22 0.23
0.35 0.42 0.42 0.39 0.32 0.29 0.32 0.43 0.43 0.43 0.31 0.20 0.20 0.15 0.13 0.25 0.21 0.21 0.22 0.23 0.17 0.23 0.19 0.20 0.20 0.16 0.14 0.15 0.16 0.17 0.17 0.17 0.18 0.19 0.19 0.19 0.19 0.20 0.20 0.21 0.21 0.21 0.21 0.22
0.34 0.37 0.29 0.23 0.30 0.42 0.40 0.32 0.25 0.25 0.26 0.26 0.19 0.22 0.16 0.21 0.19 0.18 0.18 0.21 0.17 0.14 0.18 0.20 0.15 0.14 0.16 0.17 0.17 0.18 0.18 0.18 0.19 0.17 0.17 0.18 0.18 0.19 0.19 0.19 0.20 0.21 0.21 0.22
0.27 0.23 0.22 0.35 0.41 0.34 0.26 0.19 0.17 0.18 0.17 0.23 0.21 0.20 0.17 0.23 0.16 0.16 0.20 0.17 0.18 0.13 0.15 0.16 0.13 0.12 0.15 0.17 0.17 0.18 0.18 0.19 0.19 0.19 0.19 0.19 0.18 0.18 0.18 0.19 0.19 0.20 0.20 0.21
0.30 0.30 0.38 0.36 0.27 0.23 0.18 0.15 0.17 0.16 0.14 0.19 0.17 0.18 0.19 0.20 0.22 0.17 0.19 0.15 0.16 0.11 0.19 0.15 0.11 0.13 0.15 0.16 0.16 0.17 0.18 0.18 0.18 0.18 0.18 0.18 0.18 0.18 0.18 0.18 0.18 0.18 0.19 0.20
0.37 0.31 0.26 0.22 0.22 0.15 0.12 0.10 0.12 0.12 0.16 0.17 0.17 0.15 0.18 0.20 0.21 0.17 0.17 0.13 0.13 0.18 0.13 0.11 0.12 0.14 0.15 0.16 0.16 0.17 0.17 0.17 0.17 0.17 0.18 0.18 0.17 0.18 0.17 0.17 0.17 0.17 0.17 0.18
0.23 0.20 0.16 0.17 0.14 0.15 0.14 0.14 0.15 0.17 0.17 0.16 0.15 0.14 0.15 0.18 0.15 0.16 0.13 0.15 0.16 0.11 0.10 0.10 0.13 0.14 0.15 0.16 0.16 0.16 0.16 0.16 0.16 0.16 0.17 0.16 0.17 0.16 0.17 0.17 0.17 0.16 0.16 0.16
0.20 0.20 0.14 0.16 0.18 0.19 0.18 0.18 0.17 0.17 0.16 0.14 0.14 0.14 0.15 0.15 0.14 0.15 0.14 0.12 0.10 0.10 0.10 0.12 0.13 0.14 0.14 0.15 0.15 0.15 0.15 0.15 0.15 0.16 0.15 0.15 0.16 0.16 0.16 0.16 0.16 0.16 0.15 0.15
0.23 0.21 0.18 0.20 0.17 0.16 0.17 0.16 0.15 0.16 0.15 0.15 0.15 0.13 0.12 0.12 0.12 0.11 0.10 0.10 0.08 0.10 0.12 0.13 0.13 0.13 0.13 0.13 0.14 0.14 0.14 0.14 0.14 0.15 0.15 0.15 0.14 0.14 0.15 0.15 0.15 0.15 0.15 0.14
0.21 0.18 0.20 0.19 0.17 0.16 0.16 0.15 0.14 0.15 0.14 0.12 0.12 0.10 0.11 0.13 0.10 0.09 0.10 0.09 0.11 0.12 0.12 0.12 0.12 0.12 0.12 0.12 0.13 0.13 0.13 0.13 0.13 0.13 0.13 0.13 0.14 0.14 0.13 0.13 0.14 0.13 0.14 0.14
Wind_Speed
27 28 29 30 31 30 30 31 31 32 34 33 31 30 31 34 29 26 23 19 16 17 17 18 18 18 16 14 16 18 15 18 19 20 21 15 13 12 13 14 16 19 22 24
27 29 30 31 32 31 32 32 32 32 33 32 33 33 34 32 29 24 21 20 18 16 17 18 16 17 17 16 15 16 17 17 18 17 11 10 15 16 17 18 20 21 21 22
28 30 32 32 33 33 32 32 32 33 33 33 33 35 34 31 30 27 22 21 19 17 18 17 18 17 16 17 20 21 20 19 20 20 20 18 21 23 21 18 20 23 26 34
28 30 32 34 34 34 33 33 32 33 34 35 34 34 34 33 30 24 23 19 17 19 17 18 18 19 19 23 21 18 18 21 22 25 25 23 24 24 24 24 25 23 26 29
29 31 33 35 36 34 33 33 34 34 36 34 34 35 33 31 28 27 25 18 22 24 23 23 28 26 23 21 19 19 20 21 20 24 23 23 24 24 23 22 22 22 23 23
29 31 33 34 36 35 34 35 34 34 35 35 35 35 33 35 35 25 23 27 27 24 23 23 26 26 26 24 22 19 19 18 18 22 18 19 19 15 15 15 14 16 17 20
30 32 34 35 35 36 35 35 35 35 35 35 35 36 36 33 32 29 27 25 22 21 24 25 24 24 24 23 24 22 21 19 17 17 15 14 13 11 11 12 11 14 18 21
31 33 34 35 37 36 36 36 35 35 35 36 37 34 36 36 34 28 25 22 22 25 23 19 17 16 13 12 11 12 15 15 13 13 12 15 13 11 10 12 11 14 18 20
31 33 35 36 36 38 37 37 36 36 36 35 36 37 35 35 33 27 23 23 21 22 20 17 15 14 12 12 13 10 10 13 12 10 10 11 9 10 14 16 13 14 17 19
31 34 35 36 37 38 38 38 37 36 37 36 35 36 35 34 30 27 25 24 23 19 17 15 13 14 11 10 10 10 10 9 11 14 13 12 12 18 16 12 13 17 17 19
32 34 36 36 37 38 37 37 37 36 36 37 35 34 34 33 29 26 25 24 19 18 16 14 14 12 13 14 14 13 11 10 10 10 11 13 14 12 11 15 16 17 19 20
32 34 36 37 38 38 38 37 38 36 35 36 35 35 35 31 28 26 22 21 19 17 17 16 15 15 14 13 13 13 13 12 14 12 11 11 11 8 12 15 18 19 21 21
33 34 36 37 37 37 37 37 37 36 36 35 32 34 33 29 26 24 21 20 18 17 17 17 14 14 11 12 12 13 12 13 13 15 13 14 13 15 18 20 20 21 21 23
33 35 37 38 37 36 35 36 35 35 34 32 33 34 32 29 25 22 20 20 19 18 17 16 15 14 13 14 14 13 14 16 15 14 15 18 16 19 21 21 21 21 22 22
34 35 37 37 36 35 34 35 34 33 31 32 34 32 29 27 24 22 21 20 19 19 18 16 15 15 13 11 10 10 12 12 12 13 15 17 20 21 20 20 20 21 22 22
34 36 36 36 35 33 32 32 31 31 32 31 30 29 27 26 25 24 22 21 19 19 16 15 12 11 13 11 10 10 12 13 14 14 18 20 19 20 19 20 20 20 20 20
34 35 34 34 32 30 29 30 31 31 30 29 29 28 27 27 24 24 22 21 20 16 14 12 12 13 12 10 10 15 15 14 14 15 17 15 15 17 19 19 19 19 18 17
34 33 31 30 28 28 30 30 31 30 28 28 27 26 27 26 25 24 23 21 19 16 13 13 12 12 11 9 12 13 14 14 12 14 13 14 15 15 15 15 15 15 15 14
32 30 28 29 29 29 30 28 28 27 26 26 26 27 25 27 25 24 22 19 16 15 13 11 11 12 10 12 12 13 13 11 12 12 11 11 11 12 12 13 13 12 12 12
30 29 29 28 29 29 27 26 27 27 27 27 26 27 26 27 26 22 21 17 15 14 12 11 11 10 9 12 12 12 12 11 11 10 11 11 11 12 12 12 12 12 11 11
29 28 27 28 27 26 25 25 26 27 26 27 27 27 27 27 23 22 18 17 15 14 12 11 11 10 11 13 13 12 12 12 12 11 12 12 12 13 13 13 13 12 12 11
28 27 27 26 25 24 23 24 26 25 25 28 28 28 27 25 22 19 18 15 13 13 14 12 11 11 12 14 14 14 14 14 14 13 13 14 14 14 14 14 14 14 13 13
27 26 25 24 24 23 22 25 26 26 28 28 29 28 25 23 20 18 16 14 14 15 13 12 12 13 15 16 16 16 16 16 16 15 15 15 15 15 15 15 15 15 15 15
25 24 24 21 23 24 23 24 25 27 27 29 28 27 24 22 19 16 16 15 15 13 12 12 14 17 18 19 20 19 20 19 19 19 18 17 17 16 16 16 16 16 16 16
24 23 21 21 24 24 23 25 26 28 29 29 28 26 23 21 18 15 16 15 13 13 14 16 19 21 22 23 24 25 24 23 23 22 21 21 20 20 19 19 19 18 18 18
22 21 21 24 24 24 25 26 26 28 29 28 26 24 22 19 17 16 15 15 17 17 19 21 23 25 26 28 28 27 27 26 26 25 24 23 23 23 23 23 22 22 21 20
22 23 23 23 24 24 24 26 27 28 27 26 24 22 20 20 18 18 18 18 19 22 24 25 26 28 29 30 29 28 27 27 26 26 26 25 25 25 24 24 25 24 23 22
Wind_Direction
351 350 348 347 346 345 345 344 343 341 341 341 341 339 336 334 330 328 321 318 310 299 297 290 284 278 275 277 278 274 270 276 275 275 281 268 273 264 278 274 274 275 275 281
351 351 350 349 348 345 344 343 341 343 342 341 340 336 334 331 331 330 323 314 306 306 299 298 289 284 276 272 279 277 279 270 279 286 282 279 267 279 277 276 273 268 273 278
350 350 349 348 347 346 343 343 343 343 343 341 339 338 337 336 334 325 320 313 311 305 300 292 290 282 284 285 282 279 277 264 264 269 273 280 280 285 283 272 273 278 276 289
348 349 348 347 345 345 343 344 342 343 340 339 338 336 334 334 333 333 323 317 306 310 305 304 292 287 285 286 284 275 268 267 268 270 274 274 273 274 278 276 272 272 285 290
345 346 347 347 346 344 344 343 342 341 337 338 338 338 337 335 335 327 321 312 312 306 299 295 294 288 291 283 284 278 271 271 273 274 272 271 272 273 271 270 276 276 284 289
344 344 344 345 347 345 343 342 342 341 339 340 338 338 338 334 332 329 319 315 311 306 301 300 294 289 285 278 281 277 269 273 281 276 274 279 274 265 265 272 277 282 292 300
342 342 343 343 344 345 343 342 342 341 339 339 337 336 334 333 331 325 318 316 310 307 306 301 296 289 283 279 276 267 270 271 268 272 280 270 265 264 269 273 287 301 300 306
338 339 340 341 342 341 342 342 343 341 338 337 337 337 335 333 330 326 321 319 314 316 312 307 306 306 304 295 286 277 264 265 267 269 261 274 273 273 276 279 283 308 308 311
336 338 338 337 338 340 340 339 339 339 339 339 336 335 335 334 334 332 327 324 319 322 316 310 305 298 292 295 297 287 278 267 262 267 262 260 263 277 295 285 272 306 313 313
335 336 337 338 338 338 338 337 336 337 336 337 338 336 336 335 334 330 328 328 325 326 321 314 302 295 290 293 291 296 293 282 270 264 260 267 281 290 289 270 278 303 308 312
333 334 335 335 337 337 337 336 336 335 336 334 334 336 335 333 332 330 327 330 331 328 326 316 311 303 294 287 282 285 280 282 275 278 270 266 302 282 286 286 288 297 305 307
332 333 334 335 334 335 335 335 336 336 335 333 332 333 332 329 327 328 330 325 325 323 322 317 310 306 299 286 286 289 277 278 275 277 272 274 291 295 291 295 294 297 300 302
330 331 333 333 333 333 333 334 336 336 337 337 339 339 339 337 333 328 327 329 327 325 321 318 310 303 304 298 289 287 293 296 270 261 274 273 281 287 298 297 296 298 299 299
329 330 331 332 332 332 333 334 335 336 338 339 339 339 341 339 336 334 329 326 325 323 321 316 310 304 299 295 295 293 290 290 285 270 275 278 272 296 298 298 296 297 299 299
327 328 330 331 331 331 333 335 336 336 337 337 336 338 342 342 341 338 333 331 327 323 320 314 309 307 306 305 303 304 302 293 286 276 285 280 283 295 296 296 297 300 299 300
326 327 329 330 331 331 333 336 338 341 339 339 339 340 342 342 339 336 333 330 328 325 321 315 313 314 315 307 303 304 306 298 286 286 292 288 287 290 297 295 298 300 301 301
325 327 329 330 331 333 335 335 336 337 338 339 338 340 340 339 338 336 334 331 329 328 325 320 319 321 318 309 304 310 308 301 291 296 299 295 298 294 297 296 298 301 300 300
324 326 328 332 336 335 335 336 336 336 338 340 340 337 339 339 335 333 331 330 331 327 322 322 323 323 322 319 316 316 313 309 300 306 302 299 302 305 307 306 304 305 307 306
324 325 327 328 330 331 332 334 338 339 339 339 340 339 336 337 334 330 331 330 329 325 324 321 323 324 327 319 319 322 323 319 313 316 312 314 318 322 324 325 322 318 314 312
321 322 324 325 328 329 331 334 336 337 338 339 338 337 333 334 333 331 332 330 326 326 323 322 324 320 319 324 323 325 324 322 323 320 321 323 323 325 328 331 331 328 321 314
320 321 321 321 325 328 331 333 337 335 337 336 336 335 333 332 331 327 328 323 321 323 318 320 319 315 313 322 323 322 322 320 319 316 314 315 315 317 318 320 324 325 325 321
316 318 320 321 325 328 332 331 332 335 332 334 334 332 331 330 329 329 326 321 322 312 318 320 317 308 313 317 317 316 317 315 313 312 310 309 309 311 311 312 314 316 316 316
316 317 319 321 323 329 328 327 328 330 330 332 332 330 330 330 329 325 325 322 312 315 319 313 309 310 311 312 311 309 309 309 307 305 305 307 307 307 308 308 308 307 306 307
314 315 315 318 320 321 321 322 324 326 328 328 328 327 327 325 326 323 320 315 318 316 314 309 310 309 307 307 306 304 303 302 300 299 297 298 299 300 303 306 306 306 305 305
311 314 311 314 318 321 320 322 324 326 326 328 328 327 326 323 322 321 320 321 317 315 311 311 311 310 308 305 302 299 297 295 293 292 292 291 291 292 293 297 299 301 302 302
309 311 312 314 317 316 318 321 322 324 327 327 327 326 326 321 320 320 311 311 305 308 308 309 310 310 308 308 304 298 294 291 289 287 287 287 287 286 287 289 293 293 294 295
307 309 310 313 317 316 316 319 319 324 325 324 326 325 317 317 318 314 312 306 307 308 308 308 308 309 308 308 306 300 296 292 289 287 284 283 284 284 284 286 288 289 289 289